Flag for U.S.A. Weather past 2 weeks in Brownsville, Texas, U.S.A.

Now
74 °F

Sunny.


Feels Like: 73 °F
Forecast: 71 / 84 °F
Wind: 13 mph from Southeast

Location: Brownsville / South Padre Island International Airport

Current Time: Apr 1, 2015 at 8:23:16 PM

Latest Report: Apr 1, 2015 at 7:53 PM


Visibility: 8 mi

Pressure: 29.88 "Hg

Humidity: 85%

Dew point: 69 °F

Location of BrownsvilleLocation

Historic Weather in Brownsville — Graph

°F

Brownsville temperature yesterday

Maximum temperature yesterday: 80 °F (at 1:53 PM)
Minimum temperature yesterday: 68 °F (at 12:53 AM)
Average temperature yesterday: 74 °F

Past Weeks' High & Low Weather Summary

 TemperatureHumidityPressure
High82 °F (Mar 20, 3:53 PM)100% (Mar 23, 1:02 AM)30.25 "Hg (Mar 23, 1:02 AM)
Low53 °F (Mar 27, 7:53 AM)25% (Mar 27, 2:53 PM)29.82 "Hg (Mar 26, 5:53 AM)
Average71 °F84%30.02 "Hg
* Reported Mar 17 6:00 PM — Apr 1 6:53 PM, Brownsville, Weather by CustomWeather, © 2015

Note: Actual official high and low records may vary slightly from our data, if they occured in-between our weather recording intervals... More about our weather records

Advertising

Brownsville weather history for previous 24 hours

 ConditionsComfort  
Time TempWeatherWind HumidityBarometerVisibility
6:53 PM
Wed, Apr 1
77 °FSunny.18 mph74%29.87 "Hg10 mi
5:53 PM79 °FSunny.22 mph67%29.87 "Hg10 mi
4:53 PM80 °FPartly sunny.22 mph69%29.87 "Hg10 mi
4:02 PM78 °FMostly cloudy.21 mph74%29.89 "Hg10 mi
3:53 PM79 °FMore clouds than sun.20 mph72%29.89 "Hg10 mi
2:53 PM78 °FCloudy.18 mph76%29.91 "Hg10 mi
1:53 PM79 °FBroken clouds.21 mph74%29.94 "Hg10 mi
12:53 PM77 °FMostly cloudy.18 mph79%29.97 "Hg8 mi
11:53 AM77 °FCloudy.20 mph79%29.96 "Hg7 mi
11:00 AM77 °FCloudy.16 mph79%30.00 "Hg7 mi
10:53 AM77 °FMostly cloudy.12 mph79%30.00 "Hg7 mi
9:53 AM75 °FFog.16 mph88%29.96 "Hg6 mi
9:01 AM74 °FFog.9 mph91%29.96 "Hg5 mi
8:53 AM74 °FFog.12 mph91%29.94 "Hg5 mi
7:53 AM73 °FFog.16 mph90%29.88 "Hg4 mi
6:53 AM73 °FFog.14 mph90%29.90 "Hg6 mi
5:53 AM72 °FFog.9 mph93%29.90 "Hg6 mi
4:53 AM73 °FFog.17 mph90%29.90 "Hg6 mi
3:53 AM73 °FFog.15 mph94%29.90 "Hg6 mi
2:53 AM72 °FLow clouds.12 mph93%29.93 "Hg7 mi
1:53 AM73 °FLow clouds.15 mph90%29.95 "Hg7 mi
1:00 AM71 °FPassing clouds.10 mph93%29.97 "Hg7 mi
12:53 AM71 °FPartly cloudy.9 mph93%29.97 "Hg7 mi
11:53 PM
Tue, Mar 31
71 °FClear.12 mph93%29.98 "Hg8 mi
10:53 PM72 °FClear.10 mph91%29.99 "Hg8 mi
9:53 PM72 °FClear.10 mph87%29.99 "Hg9 mi
8:53 PM73 °FClear.12 mph88%29.97 "Hg9 mi
Weather by CustomWeather, © 2015

See weather overviewHow to use our weather pages